When you browse on this site, cookies collect data to enhance your experience and personalize the content and advertising you see.
Visit our Privacy Policy to learn more. By continuing to use the site, you agree to this use of cookies and data.

Hourly Weather Pokigrov

Today, 12 August, Wednesday

Time Temperature Precipitation Wind Pressure Humidity
00:00 +26°C° 0 mm 1 mps 752 mmHg 85%
01:00 +26°C° 0 mm 1 mps 751 mmHg 88%
02:00 +25°C° 0 mm 1 mps 751 mmHg 90%
03:00 +25°C° 0 mm 1 mps 751 mmHg 91%
04:00 +25°C° 0 mm 1 mps 751 mmHg 92%
05:00 +24°C° 0 mm 1 mps 751 mmHg 93%
06:00 +26°C° 0 mm 1 mps 751 mmHg 87%
07:00 +27°C° 0 mm 1 mps 751 mmHg 81%
08:00 +29°C° 0 mm 1 mps 752 mmHg 74%
09:00 +30°C° 0 mm 1 mps 752 mmHg 66%
10:00 +32°C° 0 mm 1 mps 751 mmHg 58%
11:00 +34°C° 0 mm 2 mps 751 mmHg 51%
12:00 +35°C° 0 mm 2 mps 750 mmHg 49%
13:00 +35°C° 0 mm 2 mps 750 mmHg 48%
14:00 +36°C° 0 mm 2 mps 749 mmHg 47%
15:00 +34°C° 0 mm 1 mps 748 mmHg 53%
16:00 +33°C° 0 mm 1 mps 748 mmHg 59%
17:00 +32°C° 0 mm 1 mps 748 mmHg 65%
18:00 +31°C° 0 mm 1 mps 748 mmHg 68%
19:00 +29°C° 0 mm 1 mps 749 mmHg 70%
20:00 +28°C° 0 mm 1 mps 750 mmHg 73%
21:00 +28°C° 0 mm 1 mps 750 mmHg 76%
22:00 +27°C° 0 mm 1 mps 750 mmHg 80%
23:00 +27°C° 0 mm 1 mps 750 mmHg 83%

Tomorrow, 13 August, Thursday

Time Temperature Precipitation Wind Pressure Humidity
00:00 +26°C° 0 mm 1 mps 750 mmHg 86%
01:00 +26°C° 0 mm 1 mps 750 mmHg 89%
02:00 +25°C° 0 mm 1 mps 749 mmHg 92%
03:00 +25°C° 0 mm 1 mps 749 mmHg 93%
04:00 +25°C° 0 mm 1 mps 749 mmHg 94%
05:00 +24°C° 0 mm 1 mps 750 mmHg 95%
06:00 +26°C° 0 mm 1 mps 750 mmHg 88%
07:00 +27°C° 0 mm 1 mps 750 mmHg 80%
08:00 +29°C° 0 mm 1 mps 751 mmHg 73%
09:00 +31°C° 0 mm 1 mps 751 mmHg 66%
10:00 +32°C° 0 mm 1 mps 751 mmHg 59%
11:00 +34°C° 0 mm 1 mps 750 mmHg 52%
12:00 +35°C° 0 mm 1 mps 750 mmHg 50%
13:00 +35°C° 0 mm 1 mps 749 mmHg 47%
14:00 +36°C° 0 mm 1 mps 748 mmHg 45%
15:00 +35°C° 0 mm 1 mps 748 mmHg 52%
16:00 +34°C° 0 mm 1 mps 748 mmHg 59%
17:00 +32°C° 0 mm 1 mps 747 mmHg 65%
18:00 +32°C° 0 mm 1 mps 748 mmHg 66%
19:00 +31°C° 0 mm 1 mps 748 mmHg 68%
20:00 +28°C° 0 mm 0 mps 749 mmHg 69%
21:00 +29°C° 0.3 mm 1 mps 749 mmHg 76%
22:00 +28°C° 0.3 mm 1 mps 750 mmHg 83%
23:00 +27°C° 0.3 mm 1 mps 750 mmHg 91%

Day after tomorrow, 14 August, Friday

Time Temperature Precipitation Wind Pressure Humidity
00:00 +26°C° 0.6 mm 1 mps 750 mmHg 93%
01:00 +26°C° 0.6 mm 1 mps 749 mmHg 94%
02:00 +25°C° 0.6 mm 1 mps 749 mmHg 96%
03:00 +25°C° 0 mm 1 mps 749 mmHg 96%
04:00 +25°C° 0 mm 1 mps 749 mmHg 96%
05:00 +25°C° 0 mm 1 mps 749 mmHg 96%
06:00 +26°C° 0 mm 1 mps 750 mmHg 93%
07:00 +27°C° 0 mm 1 mps 750 mmHg 90%
08:00 +28°C° 0 mm 1 mps 751 mmHg 86%
09:00 +30°C° 0 mm 1 mps 750 mmHg 76%
10:00 +32°C° 0 mm 1 mps 750 mmHg 66%
11:00 +34°C° 0 mm 1 mps 750 mmHg 56%
12:00 +34°C° 0 mm 1 mps 749 mmHg 52%
13:00 +35°C° 0 mm 1 mps 749 mmHg 49%
14:00 +36°C° 0 mm 1 mps 748 mmHg 45%
15:00 +35°C° 0 mm 1 mps 748 mmHg 51%
16:00 +34°C° 0 mm 1 mps 748 mmHg 57%
17:00 +33°C° 0 mm 1 mps 747 mmHg 63%
18:00 +32°C° 0 mm 1 mps 748 mmHg 64%
19:00 +31°C° 0 mm 1 mps 749 mmHg 66%
20:00 +30°C° 0 mm 1 mps 749 mmHg 68%
21:00 +29°C° 0.3 mm 1 mps 750 mmHg 76%
22:00 +28°C° 0.3 mm 2 mps 750 mmHg 84%
23:00 +27°C° 0.3 mm 2 mps 750 mmHg 92%

15 August, Saturday

Time Temperature Precipitation Wind Pressure Humidity
00:00 +26°C° 0 mm 2 mps 750 mmHg 92%
01:00 +26°C° 0 mm 2 mps 749 mmHg 92%
02:00 +26°C° 0 mm 2 mps 749 mmHg 93%
03:00 +25°C° 0 mm 2 mps 749 mmHg 93%
04:00 +25°C° 0 mm 2 mps 749 mmHg 93%
05:00 +25°C° 0 mm 1 mps 749 mmHg 94%
06:00 +26°C° 0 mm 2 mps 750 mmHg 88%
07:00 +27°C° 0 mm 2 mps 750 mmHg 83%
08:00 +28°C° 0 mm 2 mps 751 mmHg 77%
09:00 +30°C° 0 mm 2 mps 751 mmHg 68%
10:00 +32°C° 0 mm 2 mps 751 mmHg 58%
11:00 +35°C° 0 mm 2 mps 750 mmHg 48%
12:00 +36°C° 0 mm 2 mps 750 mmHg 46%
13:00 +36°C° 0 mm 2 mps 749 mmHg 44%
14:00 +36°C° 0 mm 1 mps 748 mmHg 42%
15:00 +34°C° 0 mm 1 mps 748 mmHg 49%
16:00 +33°C° 0 mm 1 mps 747 mmHg 55%
17:00 +30°C° 0 mm 0 mps 747 mmHg 62%
18:00 +31°C° 0 mm 1 mps 748 mmHg 64%
19:00 +30°C° 0 mm 1 mps 749 mmHg 65%
20:00 +29°C° 0 mm 2 mps 749 mmHg 67%
21:00 +28°C° 0.7 mm 2 mps 749 mmHg 75%
22:00 +27°C° 0.7 mm 1 mps 750 mmHg 84%
23:00 +26°C° 0.7 mm 1 mps 750 mmHg 92%

16 August, Sunday

Time Temperature Precipitation Wind Pressure Humidity
00:00 +26°C° 0 mm 1 mps 750 mmHg 93%
01:00 +25°C° 0 mm 1 mps 749 mmHg 93%
02:00 +25°C° 0 mm 1 mps 749 mmHg 94%
03:00 +25°C° 0 mm 1 mps 749 mmHg 94%
04:00 +25°C° 0 mm 1 mps 749 mmHg 95%
05:00 +25°C° 0 mm 1 mps 749 mmHg 95%
06:00 +26°C° 0 mm 1 mps 750 mmHg 90%
07:00 +27°C° 0 mm 1 mps 750 mmHg 85%
08:00 +28°C° 0 mm 1 mps 751 mmHg 79%
09:00 +30°C° 0 mm 1 mps 751 mmHg 72%
10:00 +31°C° 0 mm 1 mps 751 mmHg 65%
11:00 +32°C° 0 mm 1 mps 751 mmHg 57%
12:00 +33°C° 0 mm 1 mps 750 mmHg 54%
13:00 +34°C° 0 mm 1 mps 749 mmHg 50%
14:00 +35°C° 0 mm 1 mps 748 mmHg 47%
15:00 +33°C° 0 mm 1 mps 748 mmHg 54%
16:00 +32°C° 0 mm 1 mps 748 mmHg 61%
17:00 +31°C° 0 mm 1 mps 748 mmHg 69%
18:00 +30°C° 0 mm 1 mps 748 mmHg 72%
19:00 +29°C° 0 mm 1 mps 749 mmHg 75%
20:00 +28°C° 0 mm 1 mps 749 mmHg 79%
21:00 +28°C° 0.1 mm 1 mps 749 mmHg 81%
22:00 +27°C° 0.1 mm 1 mps 749 mmHg 84%
23:00 +27°C° 0.1 mm 1 mps 750 mmHg 86%

17 August, Monday

Time Temperature Precipitation Wind Pressure Humidity
00:00 +27°C° 0 mm 1 mps 749 mmHg 87%
01:00 +26°C° 0 mm 1 mps 749 mmHg 89%
02:00 +26°C° 0 mm 1 mps 748 mmHg 90%
03:00 +26°C° 0 mm 1 mps 748 mmHg 91%
04:00 +25°C° 0 mm 1 mps 748 mmHg 91%
05:00 +25°C° 0 mm 1 mps 749 mmHg 92%
06:00 +26°C° 0 mm 1 mps 749 mmHg 89%
07:00 +26°C° 0 mm 1 mps 750 mmHg 86%
08:00 +27°C° 0 mm 1 mps 751 mmHg 84%
09:00 +28°C° 0 mm 1 mps 751 mmHg 79%
10:00 +29°C° 0 mm 1 mps 751 mmHg 74%
11:00 +30°C° 0 mm 1 mps 751 mmHg 69%
12:00 +31°C° 0.1 mm 1 mps 750 mmHg 67%
13:00 +31°C° 0.1 mm 1 mps 750 mmHg 65%
14:00 +32°C° 0.1 mm 1 mps 749 mmHg 63%
15:00 +30°C° 0.4 mm 1 mps 749 mmHg 72%
16:00 +28°C° 0.4 mm 1 mps 748 mmHg 81%
17:00 +27°C° 0.4 mm 1 mps 748 mmHg 90%
18:00 +27°C° 0 mm 1 mps 749 mmHg 90%
19:00 +26°C° 0 mm 1 mps 749 mmHg 90%
20:00 +26°C° 0 mm 1 mps 749 mmHg 89%
21:00 +26°C° 0 mm 1 mps 750 mmHg 89%
22:00 +26°C° 0 mm 1 mps 750 mmHg 88%
23:00 +26°C° 0 mm 1 mps 750 mmHg 87%
Show more